Location: Waco, TX
(31.5481°N, 97.1672°W)
Time: 03:00:19
(UTC-05:00)

ISS - Pass Details

Date: 12 February 2018
Orbit: 402 x 406 km, 51.6° (Epoch: 18 June)

Event Time Altitude Azimuth Distance (km) Brightness Sun altitude
Rises 19:13:36 0° 317° (NW) 2,314 0.5 -13.4°
Reaches altitude 10° 19:15:42 10° 321° (NW) 1,454 -0.6 -13.9°
Maximum altitude 19:18:56 67° 44° (NE) 439 -3.9 -14.6°
Enters shadow 19:20:34 26° 121° (ESE) 828 -2.7 -14.9°
